This is the latest recevied weather packets stored in our database for station/object K5NAN. If no packets are shown the sender has not sent any weather packets the latest 10 day(s).
| Time | Temp. | Humidity | Pressure | Rain* | Wind** | Luminosity | Snow |
|---|---|---|---|---|---|---|---|
| 1778016714 | 29.44° C | 65% | 1002.9 hPa | 0 mm | - | 499 W/m² | - |
| 1778016410 | 29.44° C | 65% | 1003.2 hPa | 0 mm | - | 592 W/m² | - |
| 1778016108 | 29.44° C | 65% | 1003 hPa | 0 mm | - | 657 W/m² | - |
| 1778015805 | 29.44° C | 65% | 1002.9 hPa | 0 mm | - | 650 W/m² | - |
| 1778015502 | 29.44° C | 65% | 1003 hPa | 0 mm | - | 575 W/m² | - |
| 1778015199 | 28.89° C | 66% | 1003.1 hPa | 0 mm | - | 670 W/m² | - |
| 1778014895 | 28.89° C | 67% | 1003.1 hPa | 0 mm | - | 629 W/m² | - |
| 1778014593 | 28.33° C | 67% | 1003.3 hPa | 0 mm | - | 695 W/m² | - |
| 1778014291 | 28.89° C | 67% | 1003.4 hPa | 0 mm | - | 472 W/m² | - |
| 1778013987 | 28.89° C | 68% | 1003.4 hPa | 0 mm | - | 804 W/m² | - |
| 1778013685 | 28.89° C | 67% | 1003.5 hPa | 0 mm | - | 759 W/m² | - |
| 1778013382 | 28.89° C | 65% | 1003.5 hPa | 0 mm | - | 220 W/m² | - |
| 1778013079 | 28.89° C | 66% | 1003.4 hPa | 0 mm | - | 805 W/m² | - |
| 1778012775 | 28.33° C | 67% | 1003.4 hPa | 0 mm | - | 293 W/m² | - |
| 1778012471 | 28.33° C | 67% | 1003.5 hPa | 0 mm | - | 565 W/m² | - |
| 1778012168 | 28.33° C | 68% | 1003.5 hPa | 0 mm | - | 733 W/m² | - |
| 1778011866 | 28.33° C | 69% | 1003.5 hPa | 0 mm | - | 777 W/m² | - |
| 1778011563 | 28.33° C | 69% | 1003.6 hPa | 0 mm | - | 795 W/m² | - |
| 1778011260 | 28.33° C | 69% | 1003.9 hPa | 0 mm | - | 847 W/m² | - |
| 1778010956 | 27.78° C | 68% | 1003.6 hPa | 0 mm | - | 647 W/m² | - |
| 1778010654 | 27.78° C | 68% | 1003.7 hPa | 0 mm | - | 689 W/m² | - |
| 1778010350 | 27.78° C | 69% | 1003.6 hPa | 0 mm | - | 696 W/m² | - |
| 1778010046 | 27.78° C | 68% | 1003.7 hPa | 0 mm | - | 638 W/m² | - |
| 1778009743 | 27.78° C | 69% | 1003.7 hPa | 0 mm | - | 380 W/m² | - |
| 1778009440 | 27.78° C | 69% | 1003.6 hPa | 0 mm | - | 621 W/m² | - |
* Rain latest hour (hover to see other rain measurements)
** Current wind speed in m/s (hover to see current wind gust speed)